This is the latest recevied weather packets stored in our database for station/object OK1CBR-13. If no packets are shown the sender has not sent any weather packets the latest 10 day(s).
| Time | Temp. | Humidity | Pressure | Rain* | Wind** | Luminosity | Snow |
|---|---|---|---|---|---|---|---|
| 1777448251 | 10° C | 38% | 1027.1 hPa | - | - | - | - |
| 1777447652 | 9.44° C | 42% | 1027.1 hPa | - | - | - | - |
| 1777447051 | 9.44° C | 42% | 1027.1 hPa | - | - | - | - |
| 1777446451 | 8.89° C | 42% | 1027 hPa | - | - | - | - |
| 1777445852 | 8.33° C | 46% | 1027.1 hPa | - | - | - | - |
| 1777445251 | 7.78° C | 45% | 1027.1 hPa | - | - | - | - |
| 1777444651 | 6.67° C | 47% | 1027 hPa | - | - | - | - |
| 1777444052 | 6.11° C | 48% | 1026.9 hPa | - | - | - | - |
| 1777443452 | 5.56° C | 48% | 1026.9 hPa | - | - | - | - |
| 1777442852 | 5.56° C | 51% | 1026.9 hPa | - | - | - | - |
| 1777442252 | 5° C | 52% | 1026.9 hPa | - | - | - | - |
| 1777441652 | 4.44° C | 53% | 1026.8 hPa | - | - | - | - |
| 1777441052 | 3.89° C | 57% | 1026.6 hPa | - | - | - | - |
| 1777440452 | 3.33° C | 57% | 1026.7 hPa | - | - | - | - |
| 1777439852 | 3.33° C | 59% | 1026.6 hPa | - | - | - | - |
| 1777439252 | 2.78° C | 61% | 1026.6 hPa | - | - | - | - |
| 1777438652 | 2.78° C | 61% | 1026.5 hPa | - | - | - | - |
| 1777438052 | 2.78° C | 60% | 1026.5 hPa | - | - | - | - |
| 1777437452 | 2.78° C | 59% | 1026.4 hPa | - | - | - | - |
| 1777436852 | 2.78° C | 57% | 1026.3 hPa | - | - | - | - |
| 1777435652 | 2.78° C | 56% | 1026.1 hPa | - | - | - | - |
| 1777435055 | 2.78° C | 55% | 1026 hPa | - | - | - | - |
| 1777433850 | 2.78° C | 54% | 1025.8 hPa | - | - | - | - |
| 1777433251 | 2.78° C | 54% | 1025.7 hPa | - | - | - | - |
| 1777432651 | 2.78° C | 53% | 1025.7 hPa | - | - | - | - |
* Rain since midnight (hover to see other rain measurements)
** Current wind speed in m/s (hover to see current wind gust speed)